This demonstration page uses our WeatherBlox Daily Observations layout. Learn more.

Left ArrowRight Arrow

Hourly Observations for April 12, 2019

Temp ( °F °C ) Dew Point ( °F °C ) Humidity (%) Winds ( mph kmh ) Pressure ( in mb ) Visibility ( mi km ) Precip ( " mm )
12:53 am 00:53 Mostly Cloudy 70 21.1 65 18.3 84 84 SE 12 19 29.90 1013 10 16 0.00 0.00
1:46 am 01:46 Mostly Cloudy 70 21.1 65 18.3 84 84 SE 14 22 29.90 1013 10 16 0.00 0.00
1:53 am 01:53 Mostly Cloudy 70 21.1 65 18.3 84 84 SE 14 22 29.90 1013 10 16 0.00 0.00
2:53 am 02:53 Cloudy 70 21.1 65 18.3 84 84 SE 12 19 29.90 1013 10 16 0.00 0.00
3:53 am 03:53 Cloudy 70 21.1 65 18.3 84 84 SE 9 15 29.89 1012 10 16 0.00 0.03
4:53 am 04:53 Cloudy 70 21.1 65 18.3 84 84 SSE 13 20 29.90 1013 10 16 0.00 0.00
5:53 am 05:53 Cloudy with Light Rain 68 20 67 19.4 96 96 SE 9 15 29.91 1013 7 11 0.02 0.51
6:53 am 06:53 Cloudy 68 20 67 19.4 96 96 SSE 9 15 29.93 1014 10 16 0.03 0.76
7:50 am 07:50 Mostly Cloudy 68 20 66 19 94 94 SSE 5 7 29.96 1014 10 16 0.00 0.00
7:53 am 07:53 Mostly Cloudy 68 20 67 19.4 96 96 SSE 6 9 29.96 1015 10 16 0.00 0.00
8:53 am 08:53 Cloudy 69 20.6 67 19.4 93 93 S 3 6 29.98 1015 10 16 0.00 0.00
9:47 am 09:47 Partly Cloudy 70 21 68 20 94 94 S 7 11 29.99 1015 10 16 0.00 0.03
9:53 am 09:53 Partly Cloudy 70 21.1 68 20 93 93 S 6 9 29.98 1015 10 16 0.00 0.03
10:08 am 10:08 Mostly Cloudy 71 21.7 68 20 90 90 SSW 5 7 29.98 1015 10 16 0.00 0.00
10:53 am 10:53 Mostly Cloudy 72 22.2 66 18.9 82 82 VRB 7 11 29.99 1016 10 16 0.00 0.00
10:58 am 10:58 Partly Cloudy 72 22.2 66 18.9 82 82 SSW 8 13 29.99 1016 10 16 0.00 0.00
11:53 am 11:53 Mostly Cloudy 73 22.8 65 18.3 76 76 SSW 7 11 30.01 1016 10 16 0.00 0.00
12:04 pm 12:04 Mostly Cloudy 73 22.8 64 17.8 74 74 SW 9 15 30.01 1016 10 16 0.00 0.00
12:53 pm 12:53 Mostly Cloudy 75 23.9 63 17.2 66 66 SSW 9 15 30.00 1016 10 16 0.00 0.00
1:53 pm 13:53 Partly Cloudy 77 25 59 15 54 54 SSW 8 13 29.98 1015 10 16 0.00 0.00
2:53 pm 14:53 Sunny 78 25.6 58 14.4 50 50 SSW 8 13 29.97 1015 10 16 0.00 0.00
3:53 pm 15:53 Mostly Sunny 78 25.6 57 13.9 48 48 SSW 7 11 29.97 1015 10 16 0.00 0.00
4:53 pm 16:53 Mostly Sunny 78 25.6 56 13.3 47 47 SSW 9 15 29.96 1015 10 16 0.00 0.00
5:53 pm 17:53 Sunny 77 25 55 12.8 47 47 SSW 7 11 29.96 1015 10 16 0.00 0.00
6:53 pm 18:53 Sunny 76 24.4 56 13.3 50 50 SSW 5 7 29.97 1015 10 16 0.00 0.00
7:53 pm 19:53 Sunny 74 23.3 58 14.4 57 57 S 3 6 29.97 1015 10 16 0.00 0.00
8:53 pm 20:53 Clear 70 21.1 60 15.6 71 71 Calm 29.98 1015 10 16 0.00 0.00
9:53 pm 21:53 Clear 65 18.3 62 16.7 90 90 Calm 29.99 1016 10 16 0.00 0.00
10:53 pm 22:53 Clear 65 18.3 61 16.1 87 87 NE 3 6 29.99 1016 10 16 0.00 0.00
11:53 pm 23:53 Clear 63 17.2 61 16.1 93 93 E 3 6 30.01 1016 10 16 0.00 0.00

Powered by AerisWeather